Location: Lakelet
(43.9403°N, 81.0604°W)
Time: 17:51:44
(UTC+00:00)

Daily predictions for brighter satellites

Satellite Brightness Start Highest point End
(mag) Time Altitude Azimuth Time Altitude Azimuth Time Altitude Azimuth
Cosmos 1484 Rocket 3.4 12:02:35 10° NNW 12:05:29 26° WNW 12:08:23 10° SW
Cosmos 2278 Rocket 2.5 12:00:24 10° SW 12:05:46 45° WNW 12:11:12 10° NNE
Cosmos 1666 Rocket 3.5 12:02:55 10° SSW 12:07:15 77° W 12:11:39 10° N
COSMO-SKYMED 1 4.1 12:05:27 10° SW 12:07:56 16° W 12:10:26 10° NW
SL-8 Rocket 4.2 12:03:11 10° S 12:09:28 80° E 12:15:47 10° N
CENTAUR R/B 3.0 12:08:24 10° SSW 12:13:35 60° ESE 12:20:06 10° NE
Cosmos 1833 Rocket 4.4 12:12:10 10° WNW 12:14:49 14° W 12:17:28 10° SW
Gbstr 26 Del rocket 4.2 12:08:07 10° WSW 12:15:29 67° NNW 12:21:40 10° ENE
Cosmos 1140 Rocket 3.9 12:17:14 10° SW 12:21:58 38° WNW 12:26:44 10° N
Cosmos 1763 Rocket 3.4 12:17:48 10° NNW 12:22:52 81° WSW 12:27:55 10° SSE
CZ-2D R/B 2.8 12:20:03 10° N 12:23:06 52° WNW 12:26:06 10° SSW
SL-08 R/B 4.1 12:18:29 10° SSE 12:23:15 57° ENE 12:28:04 10° N
Meteor 1-15 Rocket 4.5 12:19:36 10° S 12:25:22 84° E 12:31:17 10° NNE
MOS 1 Rocket 3.3 12:21:11 10° N 12:25:37 51° WNW 12:29:49 10° SSW
ARIANE 5 R/B 2.5 12:20:59 10° NNE 12:26:08 78° WNW 12:31:10 10° SSW
Thor Agena Rocket 3.5 22:34:53 10° SSE 22:39:53 70° ENE 22:44:53 10° N
USA 238 DEB 4.3 22:32:58 10° NNW 22:39:55 43° NE 22:47:27 10° ESE
USA 238 4.3 22:33:04 10° NNW 22:40:01 43° NE 22:47:33 10° ESE
SPOT 1/Viking Rocket 4.3 22:36:11 10° SE 22:40:37 30° ENE 22:45:02 10° N
Cosmos 1703 4.2 22:38:42 10° SE 22:41:14 21° E 22:43:47 10° NE
OPS 8737 4.5 22:41:56 10° NNW 22:44:52 41° NE 22:47:51 10° ESE
Cosmos 371 Rocket 3.4 22:40:57 10° NNW 22:45:45 81° WSW 22:50:30 10° SSE
USA 267 4.2 22:40:41 10° ENE 22:46:15 31° NNE 22:51:49 10° NW
BREEZE-M DEB (TANK) 3.9 22:39:47 10° W 22:46:21 52° NNW 22:49:56 10° ENE
Cosmos 1953 3.0 22:43:28 10° NNE 22:46:42 28° ENE 22:49:56 10° SE
SJ 16-02 1.4 22:42:43 10° NNW 22:47:01 82° WSW 22:51:17 10° SSE
YAOGAN 1 3.9 22:44:05 10° ESE 22:47:02 19° ENE 22:49:59 10° NNE
Cosmos 676 Rocket 4.0 22:42:15 10° NNW 22:47:26 66° ENE 22:52:36 10° SSE
CZ-2D R/B 3.1 22:45:33 10° SE 22:48:29 39° ENE 22:51:27 10° N
Nadezhda 1 Rocket 4.3 22:42:44 10° SSW 22:48:47 73° W 22:54:53 10° N
NOSS 2-3 (D) 4.3 22:54:37 10° NW 22:59:53 77° NE 23:07:03 10° SE
Cosmos 1452 Rocket 4.3 22:57:21 10° SSE 23:01:57 32° E 23:06:35 10° NE
ISS -3.3 23:00:19 10° SW 23:03:32 47° SE 23:06:07 15° ENE
SL-8 Rocket 3.9 22:57:20 10° N 23:03:34 70° E 23:09:41 10° SSE
Meteor 1-15 Rocket 4.3 23:00:11 10° N 23:06:08 74° E 23:11:59 10° SSE
Cosmos 1470 Rocket 3.5 23:02:51 10° N 23:07:07 57° E 23:11:23 10° SSE
BREEZE-M (TANK) 1.2 23:05:44 10° WSW 23:07:59 82° NNW 23:09:31 17° ENE
NOSS 2-3 (C) 4.4 23:02:46 10° NW 23:08:03 76° NE 23:15:25 10° SE
ATLAS 5 CENTAUR R/B 1.8 23:08:15 10° WSW 23:11:03 37° NW 23:14:01 10° NNE
Meteor 1-13 Rocket 4.4 23:08:26 10° SSW 23:14:06 80° W 23:19:58 10° N
IRS-P3 4.1 23:08:57 10° SSE 23:14:12 69° ENE 23:19:30 10° N
Cosmos 1933 Rocket 4.2 23:11:12 10° N 23:15:09 32° ENE 23:19:04 10° SE
Cosmos 864 Rocket 4.4 23:09:38 10° N 23:15:52 78° E 23:22:08 10° SSE
USA 276 1.7 23:14:48 10° SW 23:17:04 52° SSE 23:18:14 25° E
NOSS 3-4 (A) 3.1 23:14:44 10° SSW 23:19:55 71° ESE 23:25:02 13° NE
NOSS 3-4 (C) 3.1 23:14:52 10° SSW 23:20:04 71° ESE 23:25:12 13° NE
Okean 2 3.9 23:16:44 10° SSE 23:20:13 33° E 23:23:20 12° NNE
ERS-1 4.5 23:16:21 10° SSE 23:21:17 88° WSW 23:26:19 10° NNW
Spot 4 Rocket 4.4 23:17:06 10° SE 23:21:52 41° ENE 23:26:38 10° N
OPS 6432 4.4 23:19:12 10° NNW 23:22:28 51° NE 23:25:39 10° SE
RESURS DK-1 3.2 23:23:30 10° SSE 23:26:56 28° ESE 23:28:17 23° ENE
Cosmos 1821 Rocket 3.9 23:21:44 10° N 23:27:54 63° E 23:33:57 10° SSE
CZ-2D R/B 3.5 23:24:41 10° SE 23:28:20 44° ENE 23:32:00 10° N
Cosmos 1603 3.6 23:23:31 10° SSW 23:29:09 76° ESE 23:34:48 10° NNE
Cosmos 1697 Rocket 4.2 23:27:05 10° N 23:30:25 16° NE 23:30:30 16° NE
BREEZE-M DEB (TANK) 2.6 23:29:51 10° NW 23:32:08 35° NNE 23:32:34 32° NE
Cosmos 332 Rocket 3.7 23:28:50 10° NNW 23:33:38 80° ENE 23:38:24 10° SSE
Cosmos 2181 Rocket 3.9 23:32:18 10° S 23:38:25 85° E 23:44:40 10° N
Cosmos 1833 Rocket 4.0 23:35:33 10° SE 23:39:20 20° ESE 23:39:20 20° ESE
SL-16 R/B 4.5 23:36:32 10° N 23:41:27 26° WNW 23:46:22 10° WSW
Cosmos 1869 Rocket 3.8 23:37:38 10° N 23:41:49 42° ENE 23:45:57 10° SSE
ARIANE 5 R/B 3.7 23:37:26 10° S 23:42:26 47° W 23:47:28 10° NNW
CARTOSAT-1 3.9 23:40:37 10° SE 23:44:32 39° ENE 23:48:28 10° N
COSMO-SKYMED 1 2.3 23:43:33 14° NNE 23:47:07 65° ESE 23:51:11 10° S
SL-4 R/B 4.5 23:45:29 10° W 23:48:27 21° SW 23:51:21 10° S
Resurs 1-3 3.4 23:44:46 10° SSE 23:49:04 81° ENE 23:53:23 10° N
USA 59 Rocket 1.9 23:49:13 10° N 23:49:23 11° N 23:49:23 11° N
